Language selection

Weather shortcuts

Whitefish Bay: Past 24 Hour Conditions

 

Thunder Bay Airport

01:00 AM EDT 24 June 2024
Disclaimer

This table is a summary of hourly weather conditions for the past 24 hours.
Please note that these observations might not always be representative of weather conditions over their associated marine area.

Date / Time
(EDT)
Wind(knots) Conditions Visibility(km) Pressure(kPa) Air tempC) Relative humidity(%) Dew pointC) Humidex
24 June 2024
1:00 W 3 Clear 24 101.2 13 98 12 *
0:00 NW 2 Clear 24 101.2 14 96 13 *
23 June 2024
23:00 WSW 3 Mainly Clear 24 101.1 16 90 14 *
22:00 WSW 5 Partly Cloudy 32 101.1 17 82 14 *
21:00 WNW 6 Partly Cloudy 32 101.0 20 71 15 24
20:00 W 6 Mainly Sunny 32 101.0 22 65 15 25
19:00 W 5 Partly Cloudy 32 101.0 22 61 14 25
18:00 WSW 5 Partly Cloudy 32 101.0 20 68 14 24
17:00 NW 8 Mostly Cloudy 32 101.0 18 78 14 *
16:00 WNW 12 Light Rainshower 24 101.1 17 89 15 *
15:00 W 12 Light Rainshower 32 101.0 17 84 15 *
14:00 NNW 3 Thunderstorm with light rainshowers 32 100.9 20 66 14 24
13:00 NW 4 Mostly Cloudy 32 100.9 21 69 15 25
12:00 NNW 2 Light Rainshower 32 100.8 21 71 15 25
11:00 WSW 6 Mostly Cloudy 32 100.8 19 77 15 *
10:00 SW 7 Mostly Cloudy 32 100.8 18 80 14 *
9:00 WSW 7 Mostly Cloudy 32 100.8 17 78 13 *
8:00 SW 7 Mostly Cloudy 32 100.8 15 81 12 *
7:00 SW 5 Mostly Cloudy 32 100.8 13 90 11 *
6:00 SW 6 Partly Cloudy 32 100.7 12 93 11 *
5:00 SW 7 Partly Cloudy 24 100.7 12 94 11 *
4:00 WSW 5 Partly Cloudy 24 100.8 12 95 11 *
3:00 SW 4 Partly Cloudy 24 100.8 13 88 11 *
2:00 SSW 4 Cloudy 24 100.9 14 83 11 *
1:00 SW 4 Mostly Cloudy 24 100.9 15 82 12 *

Zoom-in to make a selection

Map of Great Lakes - Lake Superior marine weather areas Mid Superior - 45001 East Superior - 45004 West Superior - 45006 Slate Island - 45136 Lake Of the Woods - 45148 Kenora Airport Royal Island Armstrong Airport Caribou Island Marathon Airport Pukaskwa National Park Thunder Bay Airport Welcome Island Little Flatland Island Sault Ste. Marie Airport Wawa Airport
Legend:
buoy Buoy
land station Land Station

Great Lakes - Lake Superior Area

Another Region

Features

New Predicting and Alerting Coastal Flooding Program

Find out about coastal flooding coverage, forecasts and warnings in your region

Date modified: